Regional Weather Roundup
Issued by NWS

Home | Current Version | Previous Version | Text Only | Print | Product List | Glossary Off
Versions: 1 2 3 4 5 6 7 8 9 10 11 12 13 14 15 16 17 18 19 20 21 22 23 24 25 26 27 28 29 30 31 32 33 34 35 36 37 38 39 40 41 42 43 44 45 46 47 48 49 50

000
ASUS43 KIND 171309
RWRIN

WEATHER ROUNDUP FOR INDIANA
NATIONAL WEATHER SERVICE INDIANAPOLIS IN
900 AM EDT WED SEP 17 2014

NOTE: "FAIR" INDICATES FEW OR NO CLOUDS BELOW 12,000 FEET WITH NO
SIGNIFICANT WEATHER AND/OR OBSTRUCTIONS TO VISIBILITY.

* - STATION DOES NOT REPORT WEATHER SUCH AS PRECIPITATION OR FOG.

+ - STATION NOT QUALITY CONTROLLED BY THE NATIONAL WEATHER SERVICE.
    USE DATA WITH CAUTION...ESPECIALLY DEWPOINT AND RELATIVE
    HUMIDITY OBSERVATIONS.

INZ001>003-010>013-019-020-171400-
NORTHWEST INDIANA

CITY           SKY/WX    TMP DP  RH WIND       PRES   REMARKS
GARY /AIRPORT/ PTSUNNY   50  48  93 S3        30.06F
KNOX *+        SUNNY     44  42  95 CALM      30.07S
MICHIGAN CITY+ MOSUNNY   50  50 100 CALM      30.07S
RENSSELAER +   SUNNY     46  46 100 CALM      30.07F FOG
VALPARAISO     MOSUNNY   50  47  89 CALM      30.07S FOG

$$

LMZ046-743>745-171400-
SOUTHERN LAKE MICHIGAN

STATION/POSITION TIME  TEMP WIND        PRES
                       AIR  DIR/SP/G
                 (UTC) (F)  (DEG/KT/KT) (MB)
MICHIGAN CITY    1300   52  140/  8/ 11   N/A

$$

INZ004-005-014>016-021>024-171400-
NORTH CENTRAL INDIANA

CITY           SKY/WX    TMP DP  RH WIND       PRES   REMARKS
ELKHART        SUNNY     48  48 100 CALM      30.08S
GOSHEN         SUNNY     50  46  86 CALM      30.07S
LOGANSPORT +   FOG       46  45  93 CALM      30.08S VSB 1/4
PERU/GRISSOM   SUNNY     50  49  97 SW3       30.07S
ROCHESTER +    SUNNY     50  50 100 CALM      30.08S FOG
SOUTH BEND     MOSUNNY   51  46  83 CALM      30.08S
WARSAW +       MOSUNNY   46  46 100 CALM      30.08S FOG

$$

INZ006>009-017-018-025>027-171400-
NORTHEAST INDIANA

CITY           SKY/WX    TMP DP  RH WIND       PRES   REMARKS
ANGOLA *+      SUNNY     46  46 100 CALM      30.08S
AUBURN +       PTSUNNY   48  45  87 CALM      30.09S
FORT WAYNE     PTSUNNY   49  48  97 SW3       30.09S
HUNTINGTON +   FOG       48  48 100 CALM      30.08S VSB<1/4

$$

INZ028-029-035-036-043>045-051>053-171400-
WEST CENTRAL INDIANA

CITY           SKY/WX    TMP DP  RH WIND       PRES   REMARKS
GREENCASTLE +  SUNNY     50  50 100 CALM      30.08F FOG
LAFAYETTE      MOSUNNY   47  47 100 CALM      30.07F FOG
TERRE HAUTE    SUNNY     48  47  96 CALM      30.08S FOG

$$

INZ030>032-037>040-046>048-054>057-064-065-171400-
CENTRAL INDIANA

CITY           SKY/WX    TMP DP  RH WIND       PRES   REMARKS
ANDERSON       FOG       46  46 100 CALM      30.09  VSB 1/2
CP ATTERBURY + FOG       45  45 100 CALM      30.08F VSB 1/4
COLUMBUS       FOG       45  45 100 CALM      30.08F VSB 1/4
FRANKFORT +    SUNNY    N/A N/A N/A CALM      30.08F FOG
INDIANAPOLIS   MOSUNNY   52  49  89 W3        30.07S
-EAGLE CREEK   SUNNY     51  49  92 CALM      30.07S
KOKOMO *+      SUNNY     52  48  87 SW5       30.08S
MARION +       CLOUDY    45  44  98 CALM      30.09S FOG
MT COMFORT *+  CLOUDY    46 N/A N/A CALM      30.08F VSB<1/4
SHELBYVILLE    FOG       48  46  93 CALM      30.08S VSB 1/4
ZIONSVILLE +   SUNNY     49  46  92 CALM      30.08F FOG

$$

INZ033-034-041-042-049-050-058-059-171400-
EAST CENTRAL INDIANA

CITY           SKY/WX    TMP DP  RH WIND       PRES   REMARKS
MUNCIE         CLOUDY    47  45  93 CALM      30.08S FOG

$$

INZ060-061-067>069-081>083-085>088-171400-
SOUTHWEST INDIANA

CITY           SKY/WX    TMP DP  RH WIND       PRES   REMARKS
EVANSVILLE     SUNNY     52  49  89 CALM      30.07S FOG
WASHINGTON +   FOG       47  47 100 CALM      30.07F VSB 1/4

$$

INZ062-063-066-070>080-084-089>092-171400-
SOUTH CENTRAL AND SOUTHEAST INDIANA

CITY           SKY/WX    TMP DP  RH WIND       PRES   REMARKS
BEDFORD +        N/A     46  45  93 CALM      30.08  FOG
BLOOMINGTON    SUNNY     48  47  96 CALM      30.07F FOG
NORTH VERNON + CLOUDY    50  50 100 CALM      30.09  FOG

$$




USA.gov is the U.S. government's official web portal to all federal, state and local government web resources and services.